FENGYUN 1C DEB, 30202

Orbit data source: Space-Track

FENGYUN 1C DEB, 30202 is space debris in SSO originally from a launch on Mon, 10 May 1999 UTC launched from the Taiyaun Space Center, China (TSC). Fengyun 1C debris stems from the Chinese weather satellite Fengyun-1C, which was intentionally destroyed by a Chinese anti-satellite missile in 2007. This event dramatically increased the amount of space debris, with thousands of trackable fragments posing hazards to satellites and human spaceflight. The Fengyun 1C debris cloud has become a focal point in discussions about space sustainability and the need for international regulations to prevent the creation of new debris.

Loading next visibility...
Identifier
30202, 1999-025VK
Orbit
SSO
Country
Flag of CNCN / PRC
Related business
Manufacturer
Unknown
Mission
Spacecraft
Bus & Motor
Unknown
Mass
Unknown
Launch date (UTC)
1999-05-10 (27 years ago)
Launch vehicle
Unknown
Launch site
Taiyaun Space Center, China (TSC)
Object type
Payload
Rocket body
Debris
Shape & HBR
Unknown shape, 0.1 m
Radar Cross Section
Small (<0.1 m²)

Expand to show TLE details & history
Last TLE update: 18 hours ago

TLE from 18 hours ago
0 FENGYUN 1C DEB
1 30202U 99025VK  25349.70140424  .00005648  00000-0  13832-2 0  9999
2 30202  98.6404  87.0776 0038588  49.4374 311.0169 14.52425663983322
Epoch: 2025-12-15T16:50Z
TLE epoch observation values (Epoch: 2025-12-15T16:50:01.326Z)
Latitude
-0.00004°
Longitude
109.97589°
Altitude
702.785 km
Speed
7.514 km/s
True Right ascension
05h 48m 18s
True Declination
0° 00' 00"
Sunlit
Object was in full shadow at epoch
Visualization orbit readout
Latitude
Unknown
Longitude
Unknown
Altitude
Unknown
Speed
Unknown
Apparent Right ascension
Unknown
Apparent Declination
Unknown
Sunlit
N/A
Visualization observer readout
Local Sidereal Time
09:34:28
Azimuth
Unknown
Elevation
Unknown
Doppler factor
Unknown
Orbital elements
Apogee altitude
742.219 km
Perigee altitude
687.479 km
Semi-major axis
7,092.986 km
Eccentricity
0.00386
Inclination
98.6404°
RAAN
87.0776°
Arg. of periapsis
49.4374°
True anomaly
310.68221°
Mean anomaly
311.0169°
Eccentric anomaly
310.84966°
Mean motion
3.63329 °/min
Orbital period
99.08 mins
BSTAR
0.0013832
Loading maneuver chart data...
Computing Atmospheric mass density...

Documentation

Showing up to 5 results
|